Location: Banksville Park
(38.5557°N, 75.1182°W)
Time: 04:13:27
(UTC+00:00)

Envisat - Pass Details

Date: 26 November 2020
Orbit: 764 x 766 km, 98.1° (Epoch: 16 January)

Event Time Altitude Azimuth Distance (km) Brightness Sun altitude
Rises 22:59:20 0° 196° (SSW) 3,217 6.7 -15.1°
Reaches altitude 10° 23:01:59 10° 209° (SSW) 2,296 6.1 -15.6°
Maximum altitude 23:06:10 26° 265° (W) 1,480 5.3 -16.4°
Drops below altitude 10° 23:10:23 10° 321° (NW) 2,309 5.8 -17.2°
Sets 23:13:04 0° 334° (NNW) 3,240 6.4 -17.7°
